Wind_Speed
68 71 73 73 71 70 69 65 63 61 61 60 56 54 53 48 45 43 40 39 39 40 42 42 41 38 39 42 42 42 42 41 41 39 38 36 34 32 30 28 27 27 25 22 20 22 24 24 22 21 21 20 19 18 20 23 24 24 24 25 26 27 28 28 29 30 29 29 29 27 27 28 29 29 28 28 28 28 27 27 25 23 22 22 22 22
68 71 71 71 70 70 68 64 63 63 62 60 54 51 50 47 44 43 42 40 38 40 41 41 40 37 39 42 42 43 43 42 42 41 39 38 36 34 32 30 29 28 25 22 22 25 26 24 22 21 21 20 20 20 22 25 25 24 25 25 26 27 27 28 28 29 31 31 31 29 28 29 29 29 28 27 28 28 28 28 26 24 24 24 23 23
67 69 70 70 70 70 67 64 64 64 62 57 51 49 49 46 45 45 43 41 40 41 41 40 39 36 38 41 41 43 44 42 42 42 41 40 39 37 34 33 31 28 25 23 24 26 25 24 23 22 21 21 21 22 24 25 25 24 25 26 26 27 27 27 28 29 31 32 31 30 29 28 27 26 26 28 29 29 30 29 26 25 25 24 24 23
66 67 68 69 70 70 68 66 65 63 58 54 51 49 47 46 46 45 43 43 42 41 41 40 37 35 38 41 41 42 42 41 43 43 44 44 42 40 38 36 33 30 28 27 27 27 26 25 25 24 23 22 22 23 25 26 25 25 25 26 26 27 26 27 28 30 30 31 30 29 28 25 23 24 26 29 30 30 31 29 26 25 25 25 25 23
63 65 67 69 71 70 68 66 64 61 56 54 52 49 47 46 45 43 43 43 42 41 42 39 35 35 39 40 39 39 40 41 42 44 45 45 44 42 40 37 34 31 30 30 29 28 27 27 26 26 25 23 23 24 26 26 26 25 26 27 27 26 26 27 29 30 30 30 30 28 26 24 23 23 26 30 31 32 32 29 27 25 25 25 25 22
63 65 67 70 71 69 66 65 63 60 57 55 53 49 48 46 44 44 45 43 42 42 41 38 36 36 39 38 36 38 39 39 40 42 44 44 44 43 41 37 33 32 31 30 30 29 28 27 27 26 26 24 24 26 26 26 26 26 27 29 28 27 27 29 30 30 30 30 30 27 27 27 26 26 28 31 33 33 32 29 26 25 25 25 24 22
63 67 70 71 69 66 66 65 64 60 57 55 53 50 48 46 45 45 44 43 42 42 41 39 37 36 37 36 35 37 37 36 38 40 41 43 43 43 40 37 35 34 33 33 33 32 30 29 28 27 27 26 26 27 26 25 26 28 30 31 31 29 29 29 29 30 30 30 30 28 27 27 27 29 31 33 34 34 31 28 25 24 25 25 23 21
64 68 69 68 65 65 66 65 64 60 56 55 52 48 46 44 45 45 44 43 42 44 43 40 37 36 36 36 36 36 34 35 37 37 38 39 40 40 39 38 37 36 36 36 37 35 31 30 29 28 28 27 27 27 26 26 28 31 34 35 34 30 28 27 27 29 29 28 28 28 28 27 28 29 32 34 35 32 29 26 24 25 25 24 22 21
65 68 66 64 64 66 65 64 64 59 56 55 51 46 44 44 46 46 45 44 45 47 44 40 39 38 38 39 36 34 33 34 33 30 30 32 34 36 37 38 37 38 39 39 39 36 31 29 30 30 29 29 29 27 26 27 31 36 38 36 32 28 27 27 27 28 28 27 28 29 29 29 30 31 33 35 33 30 27 25 25 26 24 22 21 21
65 67 64 63 64 65 64 64 62 57 56 56 50 45 45 46 46 45 45 47 48 47 43 41 41 39 39 37 35 34 34 30 25 23 24 25 27 30 33 36 38 39 40 40 39 35 30 29 30 31 30 30 29 27 28 29 33 39 38 32 28 26 26 27 28 29 29 27 28 30 31 31 31 32 34 33 30 28 27 26 27 27 24 22 21 22
65 65 62 63 65 64 64 64 61 57 57 54 48 45 46 46 46 47 48 50 50 47 45 44 42 39 38 37 35 33 27 22 21 22 21 21 21 24 28 33 36 38 39 40 38 35 31 30 32 32 31 30 29 28 30 32 35 39 36 28 25 25 27 30 30 30 29 27 28 31 33 32 30 30 30 28 26 27 26 27 28 27 25 23 22 23
64 62 62 64 64 64 65 64 59 57 56 51 47 46 47 47 47 48 50 52 51 49 47 46 44 42 40 38 37 31 24 23 24 22 20 19 20 21 24 27 31 34 37 38 37 34 32 32 32 32 31 30 29 30 33 36 38 38 32 26 24 24 28 30 28 28 28 27 28 30 33 32 28 26 26 24 24 25 25 26 27 26 25 23 23 24
62 59 61 63 64 66 66 62 59 58 55 50 48 49 48 49 50 50 52 53 52 49 48 49 46 44 43 42 39 31 27 27 25 22 21 21 20 21 23 25 27 30 32 33 32 32 32 32 33 32 31 30 30 33 36 38 39 36 30 27 27 26 28 28 26 25 25 25 28 30 31 30 28 26 25 23 23 23 24 25 25 24 24 23 24 24
60 59 61 63 65 66 63 60 60 60 56 53 52 51 51 51 52 53 54 54 53 52 52 51 48 46 45 44 38 30 28 28 25 24 24 22 21 22 23 24 25 25 26 27 29 30 31 32 32 32 32 31 31 34 37 38 38 35 31 30 30 27 26 27 26 25 24 24 27 29 29 28 27 26 25 23 22 23 23 23 24 24 24 22 22 23
59 60 63 64 63 63 61 60 59 58 56 54 53 52 52 52 53 53 53 54 53 54 54 51 48 48 47 44 36 31 31 30 27 26 25 23 21 20 20 20 19 19 19 21 24 27 29 30 32 32 30 29 31 34 37 38 37 36 33 31 30 28 26 26 26 25 24 24 23 25 27 27 25 24 24 22 22 22 22 23 23 24 23 21 22 22
57 59 62 62 61 60 60 60 58 55 54 53 52 52 53 52 52 53 54 55 55 56 55 51 49 50 48 43 36 33 34 32 29 28 26 24 22 20 18 16 14 14 14 15 17 20 23 26 28 28 26 27 31 34 36 37 36 35 33 31 31 30 27 27 27 25 25 24 22 23 25 24 23 23 23 22 21 21 22 22 24 24 22 22 23 21
55 56 58 60 60 59 59 59 58 55 52 53 53 53 52 53 54 54 55 56 56 57 53 49 50 51 46 40 35 34 35 32 30 29 27 25 24 21 18 15 14 12 11 11 11 14 17 20 23 24 25 27 30 33 35 35 34 34 33 32 30 28 26 27 28 25 25 25 25 25 24 24 23 22 22 21 20 21 21 23 24 23 22 23 23 21
52 53 57 60 61 60 59 59 58 55 53 53 53 54 54 57 56 54 55 54 54 53 49 47 50 49 44 38 36 36 35 32 30 28 26 26 25 22 19 17 15 12 10 9 10 10 12 14 17 20 23 26 29 32 33 32 32 33 32 31 29 27 27 29 29 26 26 26 26 26 25 24 23 21 21 21 20 20 22 24 24 22 22 22 22 21
47 51 58 59 58 59 60 59 57 56 57 55 54 55 56 57 55 53 54 54 52 50 48 48 49 48 44 40 37 36 34 32 29 28 26 26 25 23 20 18 16 12 10 10 10 10 10 11 13 16 21 25 27 29 31 31 31 31 30 28 28 29 30 30 29 28 28 27 26 27 26 25 22 20 20 20 20 20 21 22 21 20 21 21 21 21
46 49 55 56 55 57 59 58 57 58 59 57 56 56 54 52 51 50 51 51 49 48 48 49 49 48 45 40 36 35 33 31 30 28 27 27 26 25 22 20 16 12 11 12 12 12 12 12 13 15 19 23 25 27 29 29 29 29 28 27 28 30 31 31 31 30 28 27 26 27 27 25 22 21 21 20 19 19 20 20 19 19 20 21 22 22
47 45 51 54 54 56 57 57 59 59 57 57 57 56 53 51 50 49 49 49 47 47 47 48 46 44 42 36 33 33 33 32 31 29 29 28 27 26 24 21 16 13 13 14 14 14 14 15 16 17 20 21 23 26 26 28 30 30 27 27 30 31 30 30 30 29 27 26 26 26 25 23 21 21 20 19 18 19 19 20 18 18 19 21 22 22
46 42 47 53 55 57 57 56 57 57 55 56 57 55 53 51 50 50 51 49 47 46 46 46 43 39 35 31 31 33 33 33 31 30 30 29 28 27 24 20 16 14 15 15 17 18 18 19 19 19 20 21 23 25 26 30 32 28 25 28 30 29 27 27 27 27 25 24 24 24 23 22 21 21 19 19 18 19 20 20 19 19 20 21 21 21
45 40 44 52 54 55 55 54 55 55 55 55 54 53 53 52 51 51 51 49 47 46 45 44 40 34 29 28 30 33 33 32 31 31 31 30 29 28 25 20 17 16 16 17 19 20 20 19 18 18 19 21 22 24 27 31 29 23 22 23 23 22 22 22 22 23 22 20 19 19 20 22 22 21 19 19 19 20 20 20 19 19 20 20 21 20
43 40 41 47 49 49 52 54 55 56 56 54 53 53 53 53 52 50 49 48 46 44 42 39 36 31 26 26 30 31 31 32 31 32 31 31 31 29 24 20 19 18 18 18 19 20 19 18 17 18 18 19 20 21 25 27 24 19 18 17 17 19 20 20 19 19 20 18 17 18 20 22 22 21 20 19 19 20 20 19 19 20 20 20 20 20
42 40 40 45 48 49 53 57 58 57 56 54 53 53 53 52 51 50 50 49 45 43 41 34 29 27 26 26 29 31 31 31 32 32 32 32 31 28 24 22 22 21 19 17 17 17 17 17 17 17 17 18 18 19 22 22 18 15 15 15 15 18 20 21 20 19 17 17 17 18 19 20 20 20 20 19 19 19 19 19 20 20 20 20 20 20
39 38 41 47 51 52 54 56 56 55 55 54 52 52 51 49 49 48 48 46 43 42 40 32 26 25 26 26 28 30 31 31 32 32 33 33 31 28 26 24 24 23 20 18 17 16 17 18 18 17 17 17 17 18 20 19 16 15 15 14 15 17 19 21 21 19 18 17 18 19 19 20 20 20 19 19 18 19 19 19 20 21 21 21 20 19
35 34 39 47 49 49 51 51 52 53 55 55 53 52 51 49 48 46 44 41 39 39 37 31 27 26 26 26 27 30 31 31 32 33 34 33 31 29 27 26 25 24 22 20 18 17 18 19 19 19 18 18 17 17 19 18 16 16 15 14 14 16 18 19 19 19 18 17 18 19 19 19 19 19 19 18 18 18 19 19 21 21 21 21 20 20
33 31 36 43 45 46 48 51 53 54 55 55 54 53 51 50 49 46 42 40 39 36 32 29 27 26 26 27 28 30 32 32 34 35 35 33 31 29 28 27 26 24 22 20 18 17 18 19 20 20 20 19 18 17 17 18 17 16 15 15 15 16 17 17 18 18 17 17 18 18 18 18 18 17 18 18 18 18 19 20 21 21 21 21 21 21
30 31 34 38 43 48 50 51 53 53 54 54 53 52 51 50 49 46 44 42 39 34 30 28 28 27 27 29 29 31 33 33 34 35 34 32 31 30 29 28 26 23 22 21 20 19 19 20 21 22 21 21 20 18 17 17 17 16 16 16 17 17 17 17 17 18 18 18 18 18 18 19 19 18 18 18 18 18 19 19 20 21 22 23 23 23
28 30 32 36 44 50 51 50 49 50 51 52 51 50 49 49 48 46 45 42 38 35 32 30 30 29 30 30 30 31 32 33 33 33 32 31 31 30 29 27 25 22 22 23 23 23 22 23 24 24 23 22 22 21 20 18 18 18 17 18 19 19 18 18 18 19 19 19 19 19 19 20 20 20 20 20 20 20 19 20 21 22 23 25 25 25
28 28 30 35 42 47 48 48 47 48 49 49 49 48 47 46 46 44 43 40 37 35 32 31 31 30 30 30 29 30 31 32 33 32 32 32 31 30 28 27 25 24 24 25 25 25 24 25 26 26 25 24 24 23 22 20 20 20 20 20 21 21 21 20 20 20 20 20 20 20 20 21 20 20 20 21 22 21 20 21 22 23 24 26 26 26
29 29 30 33 40 44 46 47 47 46 46 46 47 48 47 45 44 42 41 39 36 34 32 31 31 30 29 28 27 28 29 31 32 32 32 32 31 30 28 26 26 26 26 26 26 25 25 26 26 26 26 26 25 24 23 22 23 23 23 23 24 24 23 22 21 21 20 20 20 21 21 22 22 21 21 22 23 22 22 22 22 23 25 26 26 26
28 29 29 30 36 41 43 45 45 45 46 47 47 47 46 45 43 42 40 38 35 33 32 31 30 29 28 26 25 26 27 29 30 31 32 32 31 30 29 28 27 27 27 27 26 25 25 24 23 24 24 24 25 24 24 24 24 25 25 26 26 26 25 23 23 22 21 20 20 21 22 23 23 24 25 25 25 26 25 24 23 23 24 25 26 26
29 29 27 28 33 36 39 43 44 44 47 48 47 46 45 44 42 40 39 36 34 33 31 29 28 28 27 26 25 26 26 27 28 29 30 30 29 29 28 28 28 28 27 26 24 24 22 21 21 21 21 20 21 22 22 23 23 25 25 26 27 27 27 26 25 24 24 24 24 24 25 25 26 27 27 28 29 29 28 27 26 25 26 27 27 27
30 30 27 29 32 35 38 41 43 45 47 45 44 45 44 42 40 37 34 33 32 31 29 26 26 26 26 26 26 26 26 26 26 26 27 27 27 27 26 27 28 28 26 24 23 21 19 18 20 20 18 17 18 19 19 20 21 23 25 27 28 28 28 28 27 27 27 28 28 28 28 28 28 28 29 30 31 31 31 31 29 28 29 29 29 28
28 29 29 30 32 34 38 41 43 44 43 40 40 42 42 41 40 37 36 35 34 31 29 27 27 26 25 25 26 26 26 26 25 25 25 26 26 26 27 28 28 27 25 22 20 19 17 18 19 19 17 17 19 19 19 20 21 23 24 26 28 28 28 27 26 27 28 29 29 29 30 30 29 29 30 31 32 32 32 31 31 30 31 31 30 29
26 29 31 31 32 35 38 39 39 37 36 37 40 41 41 41 40 38 37 35 34 32 30 29 28 26 25 24 25 25 25 24 25 25 25 26 27 28 28 28 27 24 21 20 19 18 18 18 18 18 18 19 21 22 23 23 24 24 24 26 27 28 27 27 27 27 29 30 30 30 31 31 30 29 31 32 33 33 32 32 32 32 32 32 30 30
24 29 32 32 33 36 36 34 33 33 33 36 38 39 39 39 37 36 34 32 32 31 31 31 29 27 25 24 23 23 22 21 22 24 25 27 28 29 29 27 24 22 22 22 20 18 19 19 18 17 18 18 21 23 25 26 26 26 27 28 28 28 29 28 28 29 30 29 30 31 31 31 31 31 31 32 33 33 33 33 33 33 33 31 31 31
23 29 32 32 33 35 33 30 30 32 32 33 34 35 35 35 34 34 33 32 32 31 30 31 30 27 26 24 23 21 20 20 21 23 25 27 28 29 29 28 25 24 25 23 20 19 19 19 18 17 17 18 20 23 25 27 28 28 29 29 29 29 29 28 28 29 30 30 30 30 29 29 30 31 32 32 33 34 35 34 33 33 32 31 32 32
24 29 32 31 32 33 31 28 28 29 29 29 30 32 32 33 34 35 35 34 32 30 30 30 30 28 27 25 23 21 21 22 22 23 24 26 27 28 28 27 25 24 23 22 21 21 21 21 20 19 18 19 21 23 25 27 29 29 30 30 30 29 29 29 29 29 30 30 30 29 28 28 30 31 33 35 35 35 36 36 34 33 32 32 33 33
24 29 30 30 30 31 30 28 26 27 26 26 28 30 31 33 34 34 34 32 29 29 29 29 30 30 28 26 24 23 23 22 21 22 24 25 27 27 27 26 25 23 23 23 23 22 22 23 23 21 20 21 22 24 26 28 29 31 31 31 30 29 29 28 27 27 27 28 28 28 28 29 31 33 35 37 37 36 36 36 34 33 33 33 34 34
25 27 29 29 30 30 28 27 27 26 25 25 26 28 29 31 32 31 30 29 27 28 28 28 30 30 29 27 26 25 25 23 21 22 24 25 26 26 26 26 26 26 26 26 25 24 25 25 24 22 21 22 24 26 27 29 31 32 33 32 31 30 28 26 25 25 26 26 28 28 28 30 31 33 35 37 37 37 36 35 34 34 34 34 34 34
26 27 27 28 28 28 26 26 27 27 26 26 26 27 29 31 30 29 28 27 26 26 26 27 29 31 30 29 28 28 27 25 23 23 24 24 25 25 25 27 28 28 28 27 26 26 26 26 25 25 25 26 27 28 30 31 33 33 34 34 33 30 28 27 26 25 25 24 24 26 28 29 31 32 34 36 37 37 37 36 34 34 34 34 33 34
26 27 27 27 29 28 26 25 26 26 26 26 26 26 27 28 27 27 27 27 26 26 26 27 30 33 33 31 31 30 29 28 26 26 26 26 26 26 26 27 27 28 27 27 27 27 27 28 28 29 29 29 30 31 32 34 35 34 34 35 33 28 26 27 27 25 24 23 22 23 25 27 28 30 32 35 36 36 36 37 36 34 34 33 33 33
25 25 26 27 28 28 26 25 26 25 25 24 24 24 24 25 26 27 28 28 27 27 26 27 29 33 34 33 33 33 32 30 29 29 28 28 28 28 28 29 29 29 29 29 29 29 30 31 31 31 31 32 32 33 34 36 37 36 35 35 33 31 29 28 27 26 26 24 23 23 24 24 25 25 28 31 35 36 34 34 34 33 33 32 32 32
25 24 25 25 24 24 24 24 25 25 24 24 24 24 25 26 27 29 29 29 28 27 27 26 27 30 32 33 33 33 33 33 32 31 30 30 30 30 30 31 31 31 31 31 31 32 32 33 33 33 32 33 34 35 36 37 38 38 38 37 35 33 31 30 28 27 26 25 24 24 23 23 22 22 22 24 29 32 31 31 31 30 30 30 31 32
24 24 24 23 22 22 22 23 24 25 25 25 25 25 25 26 28 29 29 30 29 28 27 27 26 27 29 30 31 31 32 33 32 32 31 30 30 31 31 31 31 31 31 31 31 32 32 32 33 33 33 34 35 35 36 37 38 39 39 38 37 35 33 31 29 28 27 26 26 25 25 24 23 21 19 17 19 22 25 26 27 28 28 29 31 32
22 22 23 22 22 21 20 20 22 24 26 26 26 25 25 26 27 28 28 29 29 29 28 28 27 27 28 28 28 29 30 31 31 31 31 30 30 30 30 30 30 30 30 30 30 30 31 32 32 33 33 34 35 35 36 36 37 38 39 39 38 37 35 33 31 29 28 27 26 26 25 24 23 22 20 18 18 20 22 24 25 26 27 28 29 30
20 20 21 22 21 21 20 19 20 22 25 26 25 25 26 26 26 27 27 28 28 29 28 29 28 29 28 28 28 29 30 30 30 30 30 30 29 29 29 30 29 29 29 29 29 30 30 31 32 33 33 34 34 35 36 36 36 37 38 39 38 38 37 34 32 29 28 27 27 27 25 24 23 23 22 21 21 22 23 24 25 26 27 27 27 28
20 20 21 21 21 20 20 20 20 20 22 24 24 25 25 25 26 27 28 28 28 28 29 29 30 30 31 30 30 30 31 31 31 31 30 29 29 30 30 30 30 29 29 29 29 30 31 32 32 33 34 34 34 35 35 35 35 36 37 38 39 38 37 35 33 30 28 26 26 27 27 25 24 24 24 24 24 24 25 25 26 27 27 27 27 27
20 20 19 19 19 19 18 20 21 19 18 19 21 22 22 22 24 27 28 28 29 29 29 29 30 30 31 31 31 32 32 32 32 32 31 31 31 31 31 31 30 30 30 30 30 31 31 31 32 33 34 34 34 34 34 33 34 35 36 37 37 37 36 35 33 32 30 28 27 27 27 26 25 25 25 25 25 26 26 26 27 27 28 28 28 28
Wind_Direction
209 211 212 214 215 215 215 215 217 218 219 220 219 220 223 221 220 222 221 219 220 223 224 226 227 223 224 227 225 224 224 222 223 225 226 227 228 227 225 225 225 225 224 217 209 209 217 221 218 221 226 228 230 233 240 245 245 244 246 248 251 251 250 248 246 244 243 243 244 247 246 246 246 244 244 244 248 252 249 245 248 250 250 250 251 253
208 210 211 213 213 214 213 213 215 217 218 219 217 218 221 218 217 218 217 217 217 221 223 223 224 220 221 225 224 224 224 222 222 224 226 228 228 228 226 225 224 224 222 215 210 214 221 223 222 224 227 228 231 234 239 243 244 244 246 250 252 254 254 254 252 247 244 243 244 245 245 246 247 245 243 242 248 252 246 242 245 247 249 250 251 252
206 209 209 210 211 212 211 211 214 216 217 218 217 217 218 216 214 214 214 213 214 218 221 221 221 218 219 224 223 223 223 221 221 222 224 226 228 227 226 226 226 225 221 215 213 217 223 226 227 228 229 229 231 234 238 241 243 245 248 251 253 256 259 259 258 253 249 247 245 245 245 248 249 247 243 243 249 249 242 240 242 246 248 250 251 252
204 207 207 207 209 210 209 210 213 215 215 216 216 216 216 214 214 213 212 213 212 215 218 219 217 215 218 222 222 222 223 221 220 220 222 224 226 226 225 225 225 224 221 219 218 220 224 227 229 231 231 232 233 235 237 239 241 244 248 251 255 259 262 262 261 258 254 250 248 246 247 249 248 245 243 246 250 245 239 239 241 244 249 250 251 253
202 204 205 206 207 207 207 209 211 213 213 213 214 214 214 213 212 210 211 213 213 214 217 217 214 213 218 221 221 221 222 221 219 220 220 222 225 226 227 226 226 226 226 225 225 225 227 229 231 233 234 234 234 235 236 238 241 245 249 252 256 260 261 259 256 255 254 251 248 246 245 244 243 243 243 246 248 242 238 238 240 244 249 250 252 253
199 202 202 205 206 205 205 207 210 211 211 211 211 210 210 209 208 207 209 210 211 214 216 215 212 213 218 221 220 221 222 221 220 220 221 222 223 226 228 228 229 230 231 233 233 232 231 232 234 236 238 238 236 236 237 239 243 246 249 252 255 257 256 255 251 247 248 250 247 242 240 240 241 241 242 244 245 242 238 238 241 246 249 251 252 252
198 201 202 204 204 203 204 205 207 208 209 210 209 208 208 205 204 206 206 208 211 213 215 214 212 213 218 220 219 221 221 221 221 221 221 222 223 225 226 227 229 230 232 234 235 234 232 232 234 236 239 240 237 236 238 241 244 247 250 252 252 251 251 253 249 242 241 243 242 240 241 241 240 239 240 243 244 243 241 240 245 248 249 251 251 249
197 201 202 202 201 201 203 204 205 206 207 209 208 207 207 204 203 203 203 205 209 212 212 211 210 212 217 219 219 220 220 220 221 220 220 222 223 224 225 225 227 229 230 233 235 235 232 232 234 236 237 237 236 235 237 241 245 247 248 249 248 247 247 250 250 244 239 239 242 243 242 241 238 238 239 240 240 241 241 243 247 249 249 250 249 248
198 200 199 199 199 200 201 203 205 203 205 208 205 204 203 201 201 201 200 203 208 211 210 208 208 210 214 217 217 217 217 217 219 219 220 223 223 224 224 225 226 227 229 232 234 235 234 233 235 236 236 235 235 234 235 240 245 248 248 249 250 250 251 252 252 246 239 239 245 242 238 236 235 236 237 236 235 235 237 241 245 246 246 247 246 246
199 199 195 195 198 199 199 201 203 201 204 206 201 199 200 199 200 199 199 203 209 211 209 209 209 209 214 218 216 215 215 213 211 211 213 216 218 221 223 224 226 228 230 233 235 237 235 234 235 236 235 236 236 235 236 240 246 251 253 254 254 253 251 247 246 244 237 236 241 237 233 232 230 233 235 233 232 232 234 238 242 245 246 245 245 247
199 196 193 194 196 197 197 199 199 198 204 204 197 196 198 197 197 198 199 203 208 209 208 209 209 208 213 217 217 215 210 203 200 202 204 203 206 210 216 221 224 227 230 233 235 235 233 232 233 235 236 237 239 239 241 242 245 251 256 259 257 253 251 246 239 238 236 238 241 235 232 232 228 229 233 233 233 234 235 238 242 246 246 244 245 249
197 193 192 193 194 195 197 197 195 197 202 200 194 194 196 195 195 197 200 204 208 208 209 210 208 207 209 214 216 209 197 195 197 197 198 197 199 203 209 216 221 225 228 231 233 232 230 229 231 234 236 238 240 242 244 245 246 251 258 265 263 254 253 250 240 234 235 239 242 236 232 232 227 222 226 232 236 237 238 240 243 245 243 243 246 250
194 190 191 192 193 195 196 194 193 196 198 194 192 194 194 194 195 197 200 205 207 207 209 211 209 207 209 212 212 201 193 198 197 195 199 199 199 202 205 211 216 220 224 227 229 228 227 227 229 232 234 236 239 242 245 247 249 254 257 258 256 249 249 250 243 238 235 235 240 238 231 226 221 219 223 231 237 238 239 241 241 241 240 241 245 250
192 189 190 192 194 195 193 191 193 195 195 192 193 194 194 195 196 197 200 204 206 206 210 211 209 209 211 213 209 198 196 201 198 199 204 203 203 206 209 213 216 217 219 221 222 223 223 224 227 229 231 234 238 241 244 246 250 254 254 253 253 250 248 250 248 244 240 239 241 236 227 219 218 224 227 231 236 236 236 237 236 238 238 239 244 250
190 188 190 191 193 193 191 191 194 195 194 192 192 193 194 196 198 199 200 203 206 208 212 212 211 211 212 213 206 197 201 203 201 204 206 207 209 212 216 219 219 219 219 220 221 222 223 224 225 227 229 233 238 241 244 247 250 253 254 254 255 253 249 248 249 246 243 244 243 232 225 222 223 229 231 233 238 236 234 232 232 234 236 239 246 250
190 189 189 190 192 191 189 190 192 192 193 191 190 192 193 195 198 199 201 204 206 209 212 211 213 214 214 212 204 200 205 205 204 207 208 210 212 214 218 218 216 215 216 219 221 225 226 226 226 227 230 235 240 242 245 247 251 254 256 255 254 254 253 249 249 248 245 242 240 235 233 228 225 229 233 235 238 237 233 232 232 233 234 241 248 248
189 190 190 189 189 189 189 190 189 189 192 192 192 192 193 195 198 200 202 205 206 210 212 211 214 217 216 212 205 205 210 209 208 210 210 212 214 215 216 216 215 213 210 214 220 227 230 230 230 230 232 237 241 244 247 249 252 255 256 256 255 257 259 256 254 254 249 242 240 240 237 229 224 227 233 234 236 237 236 235 234 233 233 241 246 244
189 191 191 189 189 186 187 190 187 185 189 192 193 193 193 195 198 199 203 207 208 211 213 213 216 220 219 213 207 209 213 212 212 213 213 215 216 217 218 220 220 214 211 219 227 234 236 235 237 237 237 239 243 247 249 251 253 255 257 258 260 261 260 258 257 254 248 244 243 240 234 228 225 228 232 233 235 239 240 237 233 230 232 239 243 240
189 192 191 189 188 186 187 188 185 185 188 189 192 194 195 197 198 198 202 207 208 210 213 215 216 219 219 214 209 211 215 215 215 214 215 217 218 219 220 223 222 216 220 230 236 243 245 239 240 244 244 244 247 250 251 252 254 256 257 259 260 259 257 257 256 251 248 246 242 236 231 228 228 230 232 233 236 239 238 232 226 226 232 237 239 238
189 193 192 187 187 188 188 185 184 188 189 187 191 195 196 198 199 200 204 206 208 210 213 217 217 218 219 215 210 211 215 216 216 214 214 216 218 219 220 222 220 219 229 238 242 247 249 242 235 237 241 244 247 249 251 253 255 256 256 257 257 255 255 255 252 249 248 244 237 231 229 229 230 232 233 234 238 239 234 229 225 227 232 235 238 238
188 191 191 187 185 187 188 185 185 189 188 187 191 193 194 197 198 200 204 207 208 210 214 219 220 219 219 217 213 213 215 216 214 212 212 213 214 215 216 217 218 223 234 242 246 249 247 239 232 231 236 241 246 251 253 255 255 253 253 256 255 252 251 249 245 244 245 240 232 229 229 230 231 234 235 235 238 237 233 230 229 230 233 236 238 240
185 188 190 187 185 186 186 186 187 188 188 190 192 191 192 195 196 199 204 205 206 209 213 218 220 219 216 213 212 214 214 215 212 209 210 211 211 211 211 211 215 225 236 245 246 243 238 233 230 231 236 242 247 252 254 255 255 255 257 258 252 246 245 241 237 238 239 233 228 228 229 229 231 233 235 235 235 232 230 230 232 233 234 236 239 241
185 185 188 188 187 185 184 185 187 188 188 191 192 191 191 194 196 199 204 205 205 208 213 216 217 216 210 205 208 211 211 211 209 207 207 207 208 209 208 207 213 223 233 240 237 232 229 228 230 235 242 247 250 253 255 257 259 261 262 254 239 231 235 235 233 235 234 228 226 226 227 228 230 231 232 233 232 229 230 234 236 234 233 236 239 240
186 185 186 186 185 185 184 185 187 188 189 190 192 192 193 194 195 198 204 206 206 208 213 215 215 211 202 200 205 207 207 207 204 204 204 204 206 207 204 204 211 219 226 229 227 224 224 226 232 238 243 246 248 250 253 258 262 259 251 239 222 221 229 230 232 236 235 230 228 227 228 231 231 229 228 230 229 228 233 238 238 235 234 236 237 237
186 186 185 183 183 185 185 185 187 188 188 189 191 193 195 196 195 197 203 205 205 207 211 212 213 207 197 196 201 202 203 203 201 200 201 202 204 203 200 201 208 215 219 218 217 216 218 221 226 231 235 238 239 243 251 259 262 252 240 233 225 223 225 227 232 237 236 234 231 230 232 233 231 226 224 227 228 230 236 238 237 235 235 235 235 238
185 187 186 184 185 185 185 186 187 187 187 189 191 193 195 197 197 199 203 203 204 207 208 204 202 198 192 193 197 198 199 200 199 198 199 201 202 200 198 201 209 214 214 211 209 208 210 214 219 223 227 232 237 242 250 256 256 246 240 239 232 225 224 228 233 235 236 236 234 235 235 232 227 223 223 227 231 235 240 239 236 235 234 234 237 242
183 185 186 185 185 184 185 187 188 188 189 190 191 193 195 196 198 200 202 203 205 208 207 202 197 193 189 191 194 196 197 196 195 196 197 199 200 198 199 203 209 213 211 208 208 208 210 214 218 221 224 229 235 241 248 251 250 246 243 238 231 226 228 232 234 235 237 237 238 239 238 233 228 225 226 230 233 238 242 240 236 234 234 236 241 248
180 182 185 185 183 184 186 188 188 189 190 190 191 192 193 196 198 199 200 202 204 206 205 200 195 193 190 190 191 193 196 195 194 195 196 197 198 198 200 204 209 211 209 208 208 208 211 217 221 224 225 227 232 238 245 247 245 244 241 235 230 231 234 237 237 237 238 238 240 242 240 237 235 234 233 234 236 239 241 240 236 233 234 239 245 252
179 180 182 182 182 184 188 189 189 190 191 192 192 193 193 195 197 197 199 201 200 200 199 194 191 192 192 191 190 191 195 195 195 196 196 196 198 199 201 206 210 211 210 211 213 213 216 222 226 228 227 228 231 238 246 248 244 241 238 236 235 236 240 242 240 240 241 240 241 242 241 240 241 240 237 235 236 238 240 240 238 236 238 243 249 253
178 180 180 181 184 186 187 187 189 191 192 192 194 194 195 196 196 197 199 199 197 196 194 188 186 190 193 191 189 190 194 196 196 195 195 196 198 200 204 207 208 209 212 217 220 223 227 231 233 233 233 233 235 239 246 249 244 238 235 235 236 238 241 242 241 241 244 245 245 244 243 243 242 240 237 234 233 235 240 243 242 242 243 247 251 255
178 179 179 182 185 187 186 185 188 192 194 194 194 195 197 198 198 198 199 198 197 196 193 186 183 189 193 191 189 189 191 194 195 195 195 197 200 202 205 206 208 211 216 220 225 229 233 236 238 240 240 239 239 240 242 244 242 238 235 235 236 238 241 242 242 243 245 246 248 248 246 246 246 243 239 235 233 237 243 246 246 247 248 250 254 257
180 179 178 181 184 186 186 186 188 191 193 195 196 196 196 198 199 199 199 198 197 196 194 187 183 187 191 189 188 189 190 192 194 195 198 201 202 203 204 205 208 212 217 221 225 229 234 237 241 243 243 243 242 240 238 237 237 236 235 236 238 240 241 243 245 247 248 250 253 254 253 252 252 250 246 240 238 241 246 249 250 251 252 254 257 260
180 179 176 180 184 185 186 187 188 189 192 195 196 196 197 197 197 198 199 198 196 196 195 189 184 187 190 187 186 189 191 191 192 194 199 203 203 202 201 202 207 212 217 221 225 230 236 240 243 246 246 245 244 242 239 237 236 236 236 239 241 244 245 246 248 252 258 261 262 262 260 256 254 253 250 246 244 244 248 253 256 257 257 259 259 260
180 177 176 179 182 184 186 188 188 189 192 194 194 195 197 197 197 198 198 196 195 198 197 190 185 189 190 188 187 190 192 194 195 196 199 202 203 203 201 203 209 214 218 223 229 235 240 244 247 248 245 242 240 239 238 238 238 239 241 243 246 250 252 253 255 260 265 267 264 262 259 256 253 251 250 249 248 249 252 255 258 260 260 260 259 259
181 176 176 178 179 181 185 188 189 191 194 195 195 195 196 196 196 197 197 196 196 198 197 192 191 192 191 190 191 192 193 196 198 200 201 203 207 208 208 210 215 220 224 228 235 241 247 252 253 249 241 233 231 232 235 237 239 242 244 246 248 251 255 259 262 265 266 266 263 258 254 252 251 251 251 251 251 252 253 255 257 258 258 258 258 258
182 177 176 177 178 181 184 188 191 193 193 194 195 196 195 195 195 194 193 194 195 196 194 193 195 195 192 192 193 194 196 199 202 204 205 207 211 214 216 218 222 225 229 235 242 250 256 258 254 248 238 228 222 222 226 231 234 239 244 248 250 252 254 258 261 263 264 263 261 257 252 250 251 253 253 253 252 252 253 255 255 255 256 257 258 259
182 177 176 175 177 180 184 189 192 192 193 194 195 196 196 195 195 194 193 193 193 193 192 192 195 196 194 195 194 193 194 198 204 209 211 212 215 218 221 225 228 231 236 244 251 254 253 249 244 241 237 230 223 220 221 225 229 234 239 245 250 253 255 257 258 260 262 263 261 257 254 252 253 253 253 254 254 254 254 255 254 254 255 257 258 258
181 178 177 175 177 180 182 186 189 190 194 196 196 195 195 195 196 195 195 195 194 192 191 190 192 193 194 196 196 193 191 193 200 208 213 215 218 221 225 229 231 235 241 247 248 244 240 237 235 235 234 232 230 227 226 228 231 235 239 244 249 253 257 259 259 260 262 264 263 260 256 255 254 254 254 254 254 255 255 254 253 252 254 257 258 258
179 179 179 176 178 181 180 182 188 190 192 194 195 195 193 194 195 195 196 196 194 191 189 189 189 190 192 195 196 194 192 193 198 203 207 212 216 221 226 230 232 236 240 240 236 231 230 229 229 230 232 233 233 233 233 235 237 240 244 248 250 254 257 260 262 263 263 265 265 261 257 256 255 256 256 255 254 254 253 254 254 253 254 257 258 257
176 178 179 177 179 181 179 180 187 190 190 191 193 192 191 191 193 195 196 195 192 189 188 188 188 189 192 195 194 194 195 196 196 198 203 209 213 217 221 224 227 229 231 228 225 226 227 227 227 230 233 233 233 235 237 240 241 244 247 250 253 256 259 261 262 262 262 263 263 261 257 256 256 256 256 256 254 252 251 253 254 253 253 255 256 256
174 177 178 178 179 180 181 183 185 186 188 189 189 189 190 191 193 195 195 193 190 189 188 188 188 189 192 194 193 196 201 200 194 194 201 209 213 215 217 218 218 220 222 224 225 227 229 229 229 233 237 238 238 239 241 243 244 245 247 251 255 258 260 261 261 260 262 264 265 264 262 260 259 257 256 256 255 253 251 251 251 251 251 252 254 255
172 173 175 178 179 179 181 184 185 184 186 187 187 188 190 191 194 195 193 190 188 188 187 187 188 188 191 194 194 197 204 205 199 197 202 209 214 217 216 215 217 221 224 226 228 230 232 232 234 239 245 247 246 246 247 247 246 246 249 253 256 259 261 265 265 263 264 266 268 268 267 265 263 260 258 258 257 255 251 249 248 250 251 250 251 253
170 170 174 179 180 179 180 183 185 185 185 185 185 188 191 192 193 193 191 189 189 187 186 186 187 188 191 194 196 199 206 210 209 207 208 211 216 220 219 218 222 226 229 231 233 235 237 239 242 247 251 252 251 250 250 250 249 251 254 256 258 261 262 264 265 265 265 267 268 269 268 267 266 264 261 259 256 253 250 248 247 249 250 249 250 252
171 170 174 179 179 180 183 185 185 185 186 186 185 188 191 192 192 192 191 192 192 190 187 185 187 190 193 196 199 203 209 215 217 216 216 217 220 224 224 226 229 232 234 238 239 241 243 245 248 251 252 253 253 252 251 251 251 254 257 259 261 263 263 264 266 267 268 268 267 267 267 268 268 268 266 262 255 250 248 246 247 250 250 250 251 254
174 173 175 178 179 182 185 186 185 185 187 187 187 188 188 187 188 190 192 192 193 194 192 189 188 192 197 200 203 207 213 218 222 222 222 223 224 227 228 230 233 235 238 242 243 244 246 247 249 251 253 254 254 252 251 251 251 253 256 259 261 262 262 265 269 270 270 270 268 267 269 272 273 274 275 269 257 248 244 243 247 251 252 251 253 257
175 174 175 176 179 183 186 187 188 190 190 190 190 189 185 183 186 190 191 190 191 194 196 194 192 194 200 204 207 211 216 221 224 225 226 227 228 230 233 235 236 238 240 243 245 246 248 250 252 253 254 254 254 254 253 251 251 252 254 258 262 263 263 265 268 270 271 270 269 267 270 275 277 278 279 272 257 248 244 244 248 253 255 255 257 261
176 176 177 176 177 182 187 189 191 193 194 194 194 192 189 187 189 191 190 190 190 192 195 197 196 198 202 206 208 213 218 222 225 228 229 230 231 233 235 237 239 241 243 246 248 251 252 254 255 254 254 254 256 256 256 253 252 253 254 257 263 266 267 267 268 269 270 269 268 268 269 273 276 277 278 274 262 253 251 250 253 257 261 264 266 266
178 178 179 181 181 182 184 188 190 193 195 195 195 194 194 192 193 193 193 192 191 192 195 198 200 202 206 209 210 214 218 222 225 228 230 231 231 233 236 239 242 245 247 250 252 254 255 256 256 255 254 255 256 258 259 257 255 254 255 257 262 267 269 268 267 267 268 268 269 269 269 269 270 271 272 270 265 262 260 259 261 263 266 269 270 270
182 183 186 189 189 188 188 189 190 192 193 194 193 193 194 195 195 196 197 196 195 197 198 200 203 207 210 212 214 216 219 223 226 229 231 233 234 237 239 242 244 247 250 252 254 256 257 258 258 258 258 257 258 259 261 261 259 258 257 258 261 265 268 268 267 267 267 266 266 266 267 266 265 266 268 267 265 266 266 265 265 267 268 270 271 272
184 185 188 192 194 193 191 190 188 184 184 186 187 187 189 192 194 196 199 200 200 201 203 204 207 210 214 217 219 221 223 226 228 231 234 236 238 240 242 244 247 251 254 256 258 261 262 263 264 265 264 263 262 262 262 262 262 261 260 260 261 263 265 267 267 267 267 266 264 264 265 265 264 264 266 266 267 268 269 269 268 268 269 271 272 274
181 180 183 187 190 191 190 187 185 178 171 171 175 178 180 184 187 192 198 202 204 206 208 209 211 214 217 221 223 226 229 232 234 236 238 239 241 243 245 248 252 255 258 261 263 265 267 268 268 268 268 267 266 266 264 263 262 261 262 262 262 263 264 264 265 266 267 267 266 266 267 268 267 267 267 267 268 270 271 271 271 271 271 273 274 276
Height
5644 5649 5656 5666 5676 5683 5689 5697 5702 5707 5711 5714 5722 5728 5732 5741 5746 5750 5755 5759 5761 5763 5765 5768 5772 5778 5781 5782 5785 5788 5790 5793 5795 5797 5799 5802 5804 5807 5809 5811 5813 5813 5814 5817 5819 5821 5822 5824 5826 5827 5828 5829 5830 5830 5831 5831 5831 5831 5831 5831 5831 5831 5831 5831 5832 5832 5833 5834 5834 5835 5835 5836 5836 5837 5837 5837 5838 5837 5837 5837 5838 5839 5839 5839 5839 5839
5636 5643 5655 5665 5672 5677 5684 5693 5697 5701 5705 5711 5720 5726 5731 5738 5742 5746 5751 5755 5758 5759 5761 5765 5769 5774 5777 5777 5780 5783 5785 5788 5791 5794 5797 5799 5801 5804 5806 5808 5809 5810 5812 5815 5817 5819 5820 5822 5823 5825 5826 5827 5828 5828 5828 5828 5828 5828 5828 5828 5829 5829 5829 5830 5830 5831 5831 5831 5831 5831 5832 5833 5833 5834 5835 5835 5836 5835 5835 5835 5836 5837 5837 5838 5838 5837
5631 5642 5652 5659 5664 5671 5680 5688 5691 5695 5702 5710 5718 5723 5728 5734 5738 5742 5746 5750 5753 5755 5758 5762 5766 5771 5773 5774 5776 5778 5781 5785 5788 5791 5793 5795 5797 5800 5802 5804 5806 5808 5810 5813 5815 5816 5818 5819 5821 5822 5824 5824 5825 5826 5826 5826 5826 5826 5826 5826 5826 5827 5828 5828 5828 5829 5828 5828 5828 5829 5830 5831 5831 5832 5833 5834 5834 5833 5833 5833 5834 5835 5836 5836 5836 5836
5629 5639 5645 5651 5658 5666 5674 5681 5685 5692 5701 5708 5715 5719 5725 5731 5734 5739 5744 5746 5749 5752 5754 5758 5763 5768 5769 5769 5770 5773 5777 5781 5784 5786 5789 5790 5792 5795 5798 5800 5803 5805 5808 5810 5812 5813 5815 5816 5818 5819 5821 5822 5823 5823 5824 5824 5824 5824 5824 5824 5824 5825 5825 5826 5826 5826 5826 5826 5826 5827 5828 5829 5830 5831 5832 5832 5831 5831 5830 5831 5833 5833 5834 5834 5834 5834
5627 5633 5639 5645 5651 5659 5669 5676 5682 5689 5697 5704 5709 5716 5722 5727 5732 5737 5740 5743 5747 5749 5751 5755 5761 5763 5764 5764 5767 5771 5774 5777 5779 5782 5784 5787 5789 5792 5794 5797 5801 5803 5805 5807 5809 5811 5812 5814 5816 5817 5818 5819 5820 5821 5821 5822 5822 5822 5822 5821 5821 5822 5822 5821 5821 5822 5823 5824 5824 5825 5826 5827 5828 5829 5829 5829 5829 5828 5829 5830 5831 5832 5832 5832 5833 5833
5621 5626 5632 5638 5645 5655 5665 5672 5679 5686 5693 5699 5705 5711 5717 5723 5729 5733 5736 5740 5744 5746 5748 5753 5757 5759 5760 5762 5765 5768 5770 5773 5776 5778 5781 5784 5787 5789 5792 5796 5799 5801 5803 5805 5806 5808 5810 5812 5814 5815 5816 5817 5818 5818 5819 5819 5819 5819 5818 5818 5818 5818 5818 5817 5816 5818 5820 5821 5822 5823 5824 5825 5825 5826 5826 5826 5826 5826 5827 5828 5829 5830 5830 5831 5831 5831
5614 5619 5625 5632 5643 5654 5661 5667 5675 5682 5689 5695 5701 5708 5713 5720 5725 5729 5734 5738 5741 5743 5746 5750 5754 5757 5758 5760 5763 5764 5767 5770 5773 5775 5778 5781 5784 5787 5791 5794 5796 5798 5800 5801 5803 5805 5807 5809 5811 5813 5814 5815 5816 5816 5816 5817 5816 5815 5814 5813 5813 5814 5814 5813 5814 5815 5817 5818 5820 5821 5821 5822 5823 5822 5823 5823 5824 5825 5826 5827 5828 5828 5829 5829 5829 5829
5608 5613 5621 5631 5642 5650 5656 5663 5670 5678 5686 5692 5699 5706 5712 5718 5723 5726 5731 5735 5738 5739 5742 5746 5751 5754 5756 5757 5759 5762 5765 5767 5769 5772 5776 5778 5782 5785 5789 5791 5793 5795 5796 5797 5799 5801 5804 5807 5808 5810 5811 5812 5812 5813 5814 5814 5813 5810 5808 5806 5808 5810 5812 5812 5813 5813 5814 5816 5817 5819 5819 5819 5819 5820 5820 5821 5822 5823 5825 5826 5827 5827 5827 5827 5828 5828
5604 5609 5619 5630 5639 5645 5653 5661 5667 5676 5682 5687 5696 5704 5710 5716 5720 5724 5729 5732 5733 5734 5738 5744 5747 5750 5751 5752 5756 5759 5762 5763 5766 5771 5775 5777 5780 5783 5785 5788 5790 5791 5792 5793 5795 5798 5802 5805 5806 5807 5808 5808 5809 5810 5810 5810 5808 5803 5802 5804 5807 5810 5812 5812 5811 5811 5811 5813 5814 5815 5815 5815 5816 5817 5817 5818 5819 5821 5823 5824 5824 5824 5825 5826 5826 5826
5599 5606 5618 5628 5634 5642 5650 5657 5664 5674 5678 5683 5694 5702 5706 5712 5717 5722 5726 5728 5728 5731 5737 5741 5743 5747 5749 5750 5753 5756 5758 5762 5767 5771 5773 5775 5777 5780 5782 5784 5786 5787 5789 5791 5793 5796 5800 5802 5803 5803 5804 5805 5806 5807 5807 5806 5803 5798 5801 5806 5808 5810 5810 5809 5808 5808 5809 5810 5810 5811 5810 5811 5812 5813 5814 5815 5817 5819 5820 5821 5822 5822 5823 5824 5824 5824
5594 5605 5616 5623 5630 5639 5646 5651 5661 5670 5674 5681 5692 5698 5703 5709 5714 5719 5722 5723 5725 5728 5733 5736 5740 5744 5747 5749 5751 5754 5759 5765 5768 5769 5770 5773 5775 5777 5779 5780 5782 5783 5785 5787 5789 5793 5796 5798 5799 5800 5801 5802 5803 5803 5802 5801 5797 5796 5801 5805 5807 5808 5807 5805 5805 5805 5807 5807 5807 5808 5807 5807 5809 5811 5812 5813 5815 5816 5818 5818 5819 5821 5822 5822 5822 5822
5591 5603 5612 5618 5626 5634 5640 5648 5659 5665 5670 5680 5690 5695 5700 5706 5710 5715 5718 5719 5721 5725 5730 5733 5737 5740 5743 5746 5748 5754 5760 5763 5764 5767 5769 5771 5773 5774 5776 5777 5778 5780 5781 5783 5786 5790 5792 5794 5796 5797 5798 5799 5799 5799 5797 5795 5793 5795 5801 5804 5805 5806 5803 5801 5802 5802 5804 5804 5804 5805 5805 5805 5807 5809 5810 5811 5812 5814 5815 5816 5817 5819 5820 5820 5820 5820
5591 5602 5610 5617 5623 5629 5636 5646 5655 5660 5668 5678 5685 5690 5696 5701 5706 5710 5713 5715 5718 5723 5726 5729 5733 5737 5740 5742 5745 5753 5758 5759 5762 5765 5767 5769 5770 5772 5773 5774 5775 5776 5778 5780 5783 5786 5788 5791 5792 5793 5795 5795 5796 5795 5792 5791 5790 5794 5800 5800 5800 5801 5800 5799 5799 5800 5801 5802 5802 5803 5803 5804 5805 5807 5808 5808 5810 5811 5812 5814 5815 5816 5817 5817 5818 5818
5591 5600 5607 5613 5618 5625 5635 5644 5650 5656 5665 5674 5680 5686 5692 5696 5700 5704 5707 5711 5715 5719 5720 5724 5730 5734 5736 5739 5745 5752 5756 5757 5761 5763 5764 5767 5768 5770 5771 5772 5773 5774 5776 5778 5780 5783 5785 5787 5789 5790 5791 5792 5792 5790 5788 5788 5790 5793 5796 5796 5796 5798 5798 5797 5797 5798 5800 5800 5800 5801 5802 5803 5804 5805 5806 5807 5808 5808 5810 5811 5812 5813 5814 5815 5816 5816
5590 5597 5603 5610 5617 5626 5636 5644 5650 5658 5664 5671 5678 5684 5689 5693 5697 5702 5705 5709 5713 5715 5717 5722 5727 5730 5733 5738 5745 5751 5753 5755 5758 5760 5762 5765 5766 5768 5769 5771 5772 5773 5775 5777 5778 5780 5782 5784 5785 5786 5788 5788 5788 5787 5786 5787 5788 5790 5792 5793 5794 5795 5795 5795 5795 5795 5797 5798 5798 5799 5800 5801 5803 5804 5804 5805 5806 5807 5808 5809 5810 5811 5812 5813 5814 5814
5591 5598 5603 5610 5619 5627 5635 5641 5649 5657 5663 5669 5675 5680 5685 5691 5696 5699 5703 5705 5709 5711 5714 5720 5724 5726 5730 5737 5744 5748 5749 5753 5756 5758 5760 5763 5765 5767 5768 5770 5771 5772 5774 5775 5777 5778 5779 5781 5782 5784 5785 5785 5784 5784 5783 5784 5787 5789 5790 5791 5791 5791 5791 5792 5792 5793 5794 5795 5796 5797 5798 5799 5801 5803 5803 5804 5804 5805 5806 5807 5808 5809 5810 5811 5811 5812
5591 5597 5603 5609 5617 5625 5634 5639 5645 5654 5662 5668 5672 5677 5683 5687 5691 5696 5699 5702 5705 5708 5713 5719 5721 5723 5729 5737 5744 5746 5748 5751 5754 5756 5759 5761 5763 5765 5767 5768 5770 5771 5772 5773 5774 5775 5777 5778 5780 5781 5782 5782 5781 5781 5781 5783 5785 5787 5788 5789 5789 5790 5791 5791 5790 5791 5792 5793 5794 5795 5796 5798 5799 5801 5802 5802 5803 5803 5804 5805 5806 5807 5808 5809 5809 5810
5592 5597 5602 5608 5615 5622 5630 5636 5644 5652 5658 5665 5671 5675 5679 5681 5686 5692 5697 5700 5704 5709 5714 5717 5719 5722 5729 5737 5742 5744 5746 5750 5752 5755 5757 5759 5762 5764 5765 5767 5768 5769 5770 5771 5772 5773 5774 5776 5777 5778 5779 5779 5779 5778 5779 5781 5784 5786 5786 5787 5789 5790 5790 5789 5789 5790 5790 5791 5792 5793 5794 5796 5797 5799 5799 5800 5801 5801 5802 5802 5803 5805 5806 5807 5808 5809
5592 5596 5600 5607 5615 5621 5626 5633 5642 5648 5652 5660 5667 5671 5675 5679 5685 5690 5694 5697 5702 5708 5711 5714 5717 5721 5726 5733 5739 5741 5744 5748 5751 5753 5756 5758 5760 5762 5763 5764 5765 5766 5767 5768 5770 5771 5772 5774 5775 5776 5777 5777 5777 5776 5777 5780 5782 5784 5785 5786 5788 5788 5787 5787 5787 5788 5788 5789 5790 5791 5792 5794 5795 5796 5797 5798 5799 5799 5800 5800 5802 5803 5804 5805 5806 5807
5591 5595 5600 5607 5615 5621 5625 5632 5639 5643 5648 5656 5662 5667 5674 5680 5685 5690 5693 5697 5702 5706 5709 5711 5714 5718 5723 5730 5737 5740 5743 5746 5748 5751 5753 5756 5758 5759 5761 5762 5762 5764 5765 5766 5767 5769 5770 5771 5772 5774 5774 5775 5775 5774 5775 5778 5780 5781 5783 5784 5784 5784 5785 5785 5785 5785 5786 5787 5788 5789 5790 5792 5793 5794 5795 5796 5797 5797 5798 5799 5800 5801 5802 5803 5804 5806
5590 5595 5600 5607 5613 5618 5625 5632 5637 5641 5648 5654 5658 5665 5672 5678 5684 5689 5692 5696 5701 5705 5707 5709 5712 5718 5723 5730 5736 5738 5740 5742 5745 5748 5751 5753 5755 5756 5758 5759 5760 5762 5762 5764 5765 5767 5768 5770 5771 5772 5773 5773 5773 5773 5774 5775 5776 5778 5781 5781 5780 5780 5781 5782 5782 5783 5783 5784 5785 5787 5788 5790 5791 5792 5793 5795 5795 5796 5797 5798 5799 5799 5800 5801 5803 5804
5590 5595 5601 5607 5612 5617 5625 5632 5637 5642 5649 5653 5657 5664 5670 5675 5681 5686 5688 5693 5698 5702 5705 5707 5712 5718 5723 5729 5733 5735 5737 5739 5742 5745 5748 5750 5753 5754 5755 5757 5758 5759 5761 5762 5764 5765 5767 5768 5769 5770 5771 5772 5772 5772 5772 5771 5771 5775 5779 5778 5776 5776 5777 5778 5780 5781 5781 5782 5783 5784 5786 5788 5790 5791 5792 5793 5794 5794 5795 5796 5797 5797 5798 5800 5801 5802
5590 5596 5601 5607 5613 5618 5625 5631 5637 5643 5648 5653 5658 5664 5668 5673 5678 5682 5686 5691 5696 5700 5702 5706 5711 5717 5722 5727 5730 5731 5733 5737 5740 5743 5746 5748 5750 5752 5753 5755 5756 5758 5760 5761 5762 5764 5766 5767 5768 5769 5770 5770 5770 5770 5769 5767 5769 5774 5776 5774 5772 5773 5774 5775 5777 5778 5779 5780 5781 5783 5785 5786 5788 5789 5790 5791 5792 5793 5793 5794 5795 5795 5797 5798 5799 5800
5591 5596 5600 5606 5614 5620 5625 5630 5635 5640 5645 5651 5657 5662 5666 5670 5675 5681 5685 5689 5694 5698 5702 5706 5712 5717 5721 5724 5726 5729 5732 5735 5737 5740 5743 5746 5748 5750 5752 5753 5755 5757 5758 5760 5762 5763 5764 5766 5767 5768 5769 5769 5769 5768 5766 5765 5768 5771 5772 5771 5771 5772 5772 5774 5775 5777 5778 5779 5781 5782 5783 5785 5786 5787 5788 5790 5790 5791 5791 5792 5793 5794 5795 5796 5797 5798
5592 5596 5599 5605 5610 5616 5620 5625 5629 5635 5642 5649 5655 5660 5665 5669 5674 5679 5682 5686 5692 5697 5701 5707 5712 5716 5719 5722 5724 5727 5730 5732 5735 5738 5741 5744 5746 5748 5750 5752 5754 5755 5757 5759 5761 5762 5763 5764 5765 5766 5767 5767 5767 5767 5764 5764 5766 5768 5769 5770 5770 5770 5771 5773 5774 5776 5777 5779 5780 5781 5782 5783 5784 5785 5786 5787 5788 5789 5789 5790 5791 5792 5793 5794 5795 5796
5592 5597 5601 5605 5609 5614 5620 5625 5631 5637 5643 5649 5654 5659 5664 5669 5674 5678 5681 5686 5692 5695 5699 5706 5711 5714 5718 5720 5722 5725 5727 5730 5733 5736 5739 5742 5744 5746 5749 5751 5752 5754 5756 5758 5759 5761 5762 5763 5764 5765 5766 5766 5766 5766 5764 5763 5764 5766 5766 5768 5769 5769 5770 5771 5773 5775 5777 5778 5779 5779 5780 5781 5781 5783 5784 5785 5786 5787 5787 5788 5789 5790 5791 5792 5793 5794
5594 5599 5603 5608 5613 5619 5625 5630 5635 5639 5642 5646 5651 5657 5662 5668 5672 5677 5681 5687 5691 5694 5699 5705 5710 5713 5716 5719 5721 5723 5725 5728 5731 5734 5737 5739 5742 5745 5747 5749 5751 5752 5754 5756 5758 5759 5760 5761 5762 5763 5764 5764 5764 5764 5764 5763 5763 5764 5765 5766 5767 5768 5769 5770 5772 5774 5775 5776 5777 5777 5778 5778 5779 5780 5782 5783 5784 5784 5785 5786 5787 5788 5789 5790 5791 5792
5595 5600 5604 5609 5615 5621 5625 5627 5631 5636 5640 5644 5649 5654 5659 5665 5669 5675 5680 5684 5689 5693 5699 5704 5709 5712 5715 5717 5719 5721 5724 5726 5729 5732 5734 5738 5741 5743 5745 5747 5749 5751 5753 5755 5756 5757 5759 5760 5760 5761 5762 5763 5763 5763 5763 5763 5763 5763 5764 5765 5766 5767 5768 5770 5771 5772 5773 5774 5774 5775 5776 5777 5778 5779 5780 5781 5782 5783 5784 5784 5785 5786 5788 5788 5789 5790
5597 5601 5605 5609 5614 5618 5622 5626 5631 5636 5640 5646 5649 5653 5658 5662 5667 5673 5677 5681 5686 5692 5697 5702 5707 5710 5712 5714 5717 5719 5722 5725 5728 5730 5733 5736 5739 5741 5743 5745 5747 5750 5751 5753 5754 5755 5757 5758 5758 5759 5760 5761 5762 5762 5762 5762 5762 5763 5763 5763 5764 5766 5767 5769 5770 5770 5771 5772 5773 5774 5775 5776 5777 5778 5778 5779 5780 5781 5782 5782 5783 5784 5785 5786 5786 5787
5598 5602 5605 5610 5614 5616 5620 5627 5633 5637 5641 5646 5650 5655 5659 5662 5666 5671 5675 5680 5685 5690 5694 5699 5704 5707 5710 5712 5715 5718 5721 5724 5727 5729 5732 5735 5737 5739 5742 5744 5746 5748 5749 5750 5752 5753 5754 5755 5756 5757 5758 5759 5760 5760 5760 5761 5761 5761 5762 5762 5763 5765 5766 5768 5768 5769 5769 5770 5771 5772 5773 5774 5775 5776 5776 5777 5778 5779 5780 5781 5781 5782 5783 5783 5784 5785
5598 5602 5606 5610 5613 5617 5622 5627 5632 5637 5642 5646 5650 5654 5659 5663 5667 5671 5675 5680 5685 5689 5693 5698 5702 5705 5708 5711 5714 5716 5719 5723 5726 5729 5731 5733 5735 5738 5740 5742 5744 5746 5747 5748 5749 5751 5752 5753 5754 5755 5756 5757 5758 5759 5759 5759 5759 5759 5760 5761 5762 5763 5764 5766 5767 5767 5768 5769 5770 5771 5772 5772 5773 5774 5774 5775 5776 5777 5778 5779 5779 5780 5781 5782 5782 5783
5599 5602 5606 5610 5614 5618 5623 5626 5631 5636 5641 5646 5649 5653 5657 5662 5666 5671 5675 5680 5684 5689 5693 5697 5701 5704 5707 5710 5713 5716 5719 5721 5724 5727 5730 5732 5734 5736 5738 5741 5742 5743 5744 5746 5747 5748 5750 5751 5752 5753 5754 5755 5756 5756 5757 5757 5757 5758 5758 5759 5760 5761 5763 5764 5765 5766 5767 5768 5769 5769 5770 5771 5771 5772 5772 5773 5774 5775 5776 5777 5778 5779 5780 5780 5780 5781
5600 5604 5608 5612 5616 5619 5623 5627 5631 5635 5639 5643 5647 5652 5656 5661 5665 5670 5674 5679 5684 5688 5692 5696 5700 5703 5706 5709 5712 5715 5718 5720 5723 5726 5728 5730 5732 5734 5736 5738 5739 5740 5742 5743 5745 5746 5747 5748 5750 5750 5751 5752 5753 5754 5755 5755 5756 5756 5756 5757 5758 5759 5761 5763 5764 5764 5765 5767 5768 5768 5769 5769 5769 5770 5770 5771 5772 5773 5774 5775 5776 5777 5778 5778 5778 5778
5601 5605 5609 5613 5617 5620 5624 5628 5631 5635 5638 5641 5645 5650 5655 5660 5665 5669 5674 5679 5684 5687 5691 5696 5699 5702 5705 5708 5710 5713 5716 5719 5721 5724 5726 5729 5730 5732 5734 5736 5737 5738 5739 5741 5743 5744 5745 5746 5747 5748 5749 5750 5751 5752 5753 5754 5754 5755 5755 5756 5756 5757 5758 5760 5762 5763 5764 5764 5765 5766 5766 5767 5767 5768 5768 5769 5770 5771 5772 5773 5774 5774 5775 5775 5775 5775
5601 5605 5609 5613 5617 5620 5624 5628 5631 5634 5637 5641 5646 5650 5655 5660 5665 5670 5675 5680 5684 5687 5691 5696 5698 5700 5704 5706 5709 5712 5715 5717 5720 5722 5725 5727 5729 5730 5732 5734 5734 5736 5737 5740 5741 5742 5744 5744 5744 5745 5746 5747 5748 5750 5751 5752 5752 5753 5753 5754 5754 5755 5756 5758 5759 5760 5761 5761 5761 5762 5763 5763 5764 5765 5766 5766 5767 5768 5769 5770 5770 5771 5771 5771 5771 5772
5602 5605 5609 5613 5617 5620 5624 5627 5630 5633 5637 5642 5647 5651 5655 5659 5663 5668 5672 5677 5681 5685 5690 5693 5696 5699 5702 5705 5707 5710 5713 5716 5719 5721 5723 5725 5726 5728 5730 5731 5732 5733 5736 5738 5740 5741 5742 5742 5742 5742 5744 5745 5746 5747 5748 5749 5749 5750 5750 5751 5751 5752 5754 5755 5756 5756 5756 5757 5757 5758 5759 5760 5761 5762 5763 5763 5764 5764 5765 5766 5767 5767 5767 5767 5768 5769
5603 5606 5610 5613 5617 5620 5624 5627 5631 5635 5639 5643 5645 5649 5654 5658 5662 5666 5670 5674 5679 5683 5687 5690 5693 5697 5700 5703 5706 5709 5712 5715 5717 5719 5721 5723 5724 5725 5727 5728 5730 5733 5735 5737 5738 5739 5739 5739 5739 5740 5741 5742 5743 5744 5745 5746 5747 5748 5748 5748 5748 5749 5750 5751 5752 5752 5752 5752 5753 5754 5755 5756 5758 5759 5760 5760 5760 5761 5762 5763 5763 5764 5764 5764 5765 5766
5605 5608 5610 5614 5617 5620 5624 5628 5633 5636 5639 5642 5645 5649 5654 5659 5663 5668 5672 5675 5678 5682 5685 5688 5691 5695 5698 5701 5703 5707 5710 5713 5715 5717 5719 5720 5722 5723 5725 5727 5729 5731 5733 5734 5735 5736 5736 5737 5737 5738 5739 5740 5740 5741 5742 5743 5744 5745 5746 5746 5747 5747 5747 5748 5748 5748 5748 5749 5749 5750 5752 5753 5754 5755 5756 5756 5757 5757 5758 5758 5759 5760 5760 5761 5762 5762
5606 5609 5612 5615 5618 5621 5626 5630 5633 5636 5639 5642 5646 5650 5655 5659 5664 5668 5671 5673 5677 5680 5684 5687 5690 5694 5697 5699 5702 5705 5708 5711 5712 5714 5716 5718 5720 5722 5723 5725 5727 5729 5730 5731 5732 5733 5734 5734 5735 5736 5737 5738 5738 5739 5739 5740 5741 5742 5742 5743 5743 5744 5745 5745 5746 5746 5746 5746 5746 5746 5749 5751 5751 5751 5752 5752 5752 5753 5754 5754 5755 5756 5757 5758 5758 5759
5607 5610 5613 5616 5619 5623 5627 5631 5634 5637 5640 5643 5646 5650 5655 5659 5663 5665 5668 5672 5676 5680 5683 5686 5690 5693 5695 5698 5701 5703 5706 5707 5710 5712 5714 5716 5717 5719 5721 5723 5725 5726 5727 5729 5730 5730 5731 5732 5733 5734 5735 5735 5736 5736 5737 5737 5738 5738 5739 5739 5740 5741 5742 5742 5743 5742 5742 5743 5742 5743 5746 5747 5747 5747 5747 5746 5747 5749 5749 5750 5751 5753 5753 5754 5754 5755
5608 5611 5615 5618 5621 5625 5629 5632 5635 5638 5641 5644 5647 5650 5654 5658 5661 5664 5667 5672 5676 5679 5682 5686 5689 5691 5694 5696 5699 5701 5703 5706 5708 5710 5712 5713 5715 5716 5718 5721 5722 5724 5725 5726 5727 5728 5729 5730 5731 5732 5733 5733 5734 5734 5734 5734 5734 5735 5735 5736 5737 5738 5738 5739 5739 5739 5739 5740 5740 5741 5743 5743 5743 5743 5742 5741 5743 5744 5745 5746 5747 5748 5749 5750 5751 5751
5609 5612 5616 5619 5622 5626 5630 5633 5635 5638 5641 5644 5647 5650 5654 5657 5660 5664 5668 5672 5675 5678 5682 5685 5687 5690 5693 5695 5698 5700 5702 5705 5707 5708 5709 5711 5713 5715 5717 5718 5719 5721 5722 5723 5724 5725 5726 5727 5729 5730 5731 5731 5731 5731 5731 5731 5731 5731 5732 5733 5734 5735 5735 5736 5736 5736 5737 5737 5737 5738 5739 5739 5739 5738 5738 5738 5739 5740 5741 5742 5743 5744 5745 5746 5747 5747
5610 5613 5617 5620 5623 5627 5630 5633 5635 5638 5640 5643 5646 5650 5653 5656 5660 5664 5668 5672 5675 5678 5681 5684 5686 5689 5691 5694 5696 5699 5701 5703 5705 5706 5708 5710 5711 5713 5715 5716 5717 5718 5720 5721 5722 5723 5724 5726 5727 5728 5728 5728 5728 5728 5728 5727 5728 5728 5728 5729 5729 5731 5732 5733 5732 5732 5733 5734 5734 5734 5734 5734 5734 5734 5734 5734 5734 5735 5736 5738 5739 5740 5741 5742 5743 5744
5611 5614 5617 5620 5623 5627 5629 5632 5635 5637 5640 5643 5646 5649 5652 5656 5660 5664 5667 5670 5674 5677 5679 5682 5685 5687 5690 5692 5695 5697 5699 5701 5703 5704 5706 5708 5709 5710 5712 5713 5714 5716 5717 5719 5720 5721 5722 5723 5724 5724 5725 5725 5725 5725 5725 5724 5725 5725 5725 5724 5725 5728 5729 5729 5729 5729 5730 5731 5732 5731 5730 5730 5730 5729 5729 5729 5730 5731 5733 5734 5735 5736 5737 5738 5739 5740
5612 5615 5618 5620 5623 5627 5629 5632 5635 5637 5640 5643 5646 5649 5653 5657 5660 5663 5666 5669 5672 5675 5678 5681 5683 5685 5688 5690 5692 5695 5697 5698 5700 5702 5704 5705 5707 5708 5709 5710 5712 5713 5714 5716 5717 5718 5719 5720 5720 5721 5721 5722 5721 5722 5722 5722 5721 5722 5722 5721 5722 5724 5726 5726 5726 5727 5728 5728 5728 5728 5727 5727 5726 5726 5725 5724 5724 5726 5729 5731 5732 5733 5734 5735 5736 5736
5614 5616 5619 5621 5624 5627 5629 5632 5635 5637 5640 5643 5645 5648 5652 5655 5658 5661 5664 5667 5670 5673 5675 5678 5681 5683 5685 5687 5690 5692 5694 5695 5697 5699 5701 5703 5704 5705 5707 5708 5709 5711 5712 5713 5714 5715 5716 5716 5717 5717 5718 5718 5718 5718 5718 5718 5718 5718 5718 5718 5719 5720 5722 5723 5723 5724 5724 5725 5725 5725 5724 5724 5724 5723 5722 5721 5722 5723 5726 5728 5729 5730 5731 5731 5732 5732
5615 5617 5619 5622 5624 5627 5629 5632 5634 5636 5639 5642 5645 5648 5651 5654 5656 5659 5662 5665 5668 5671 5674 5676 5679 5681 5683 5685 5687 5689 5691 5692 5694 5696 5698 5700 5701 5703 5704 5705 5707 5708 5709 5710 5711 5712 5712 5713 5713 5714 5714 5714 5714 5714 5714 5715 5715 5715 5715 5715 5716 5717 5718 5719 5720 5720 5721 5722 5722 5722 5722 5721 5721 5721 5720 5720 5721 5722 5724 5725 5727 5727 5728 5728 5728 5728
5616 5618 5620 5622 5625 5627 5630 5631 5633 5636 5638 5640 5643 5646 5649 5652 5655 5658 5661 5664 5667 5669 5672 5674 5677 5678 5680 5683 5685 5687 5688 5690 5692 5693 5695 5697 5698 5700 5701 5703 5704 5705 5706 5707 5708 5708 5708 5708 5709 5709 5710 5710 5711 5711 5711 5711 5712 5712 5712 5713 5713 5713 5714 5715 5716 5717 5718 5718 5719 5719 5719 5719 5719 5719 5719 5719 5719 5720 5721 5722 5723 5724 5724 5724 5724 5724
5617 5619 5620 5622 5625 5627 5629 5631 5633 5635 5637 5639 5642 5645 5648 5651 5654 5657 5660 5663 5665 5668 5670 5673 5675 5676 5678 5680 5682 5684 5686 5687 5689 5690 5692 5694 5696 5698 5699 5700 5701 5702 5703 5704 5704 5704 5704 5704 5704 5705 5706 5706 5707 5707 5708 5708 5708 5709 5709 5709 5710 5710 5711 5711 5713 5714 5715 5715 5716 5716 5716 5716 5716 5716 5716 5717 5717 5718 5718 5719 5720 5720 5720 5720 5720 5720
5617 5618 5620 5622 5625 5627 5629 5631 5633 5635 5637 5639 5641 5643 5646 5649 5652 5655 5658 5661 5664 5666 5668 5671 5672 5674 5676 5678 5680 5681 5683 5684 5686 5688 5690 5692 5693 5695 5696 5697 5698 5699 5700 5700 5701 5701 5701 5701 5701 5701 5701 5702 5703 5703 5704 5704 5705 5705 5705 5706 5706 5707 5707 5708 5708 5709 5711 5712 5712 5713 5713 5713 5714 5714 5714 5714 5715 5715 5715 5716 5716 5716 5716 5716 5716 5716
5616 5618 5620 5622 5624 5626 5628 5630 5633 5635 5637 5639 5642 5643 5646 5648 5651 5653 5656 5659 5661 5664 5666 5668 5670 5672 5673 5675 5677 5678 5680 5682 5684 5685 5687 5689 5690 5692 5693 5694 5695 5696 5697 5697 5697 5697 5697 5697 5697 5697 5697 5698 5698 5699 5700 5700 5701 5701 5701 5701 5702 5703 5704 5704 5705 5706 5707 5708 5708 5709 5709 5710 5710 5711 5711 5712 5712 5712 5712 5712 5712 5712 5712 5712 5712 5712